Simultaneous Nadir Overpasses (SNOs) Predictions

Prediction of SNOs between GOES-14 and NPP Satellite Orbit:

Table of predicted SNOs for the next 14.0 days since TLE Epoch: 11/4/2022
Index Date Time (GOES-14) GOES-14 Lat,Lon NPP Lat,Lon Distance(km) Time Diff (sec)
1 11/06/2022 20:21:46 -0.09,-104.15 -0.10,-104.31 18.00 80
2 11/09/2022 08:27:27 0.07,-104.35 0.25,-105.04 78.68 80
3 11/10/2022 08:06:02 0.09,-104.34 -0.75,-100.50 437.05 80
4 11/11/2022 20:27:57 -0.06,-104.12 -0.44,-105.80 191.09 80
5 11/12/2022 20:11:52 -0.07,-104.13 0.57,-101.26 326.94 80
6 11/14/2022 08:33:40 0.04,-104.36 0.52,-106.54 247.95 80
7 11/15/2022 08:12:15 0.06,-104.35 -0.49,-102.00 267.85 80
8 11/16/2022 20:34:09 -0.03,-104.09 -0.74,-107.29 364.25 80
9 11/17/2022 20:18:03 -0.04,-104.10 0.27,-102.75 153.92 80
